Wind_Speed
18 21 27 21 17 15 18 21 24 13 10 9 12 17 15 14 7 5 4 5 8 11 3 2 7 15 18 24 29 30 30 26 24 25 27 28 31 31 34 33 29 25 25 24
20 35 24 16 15 22 28 17 15 15 10 5 11 11 15 14 9 10 8 10 10 9 9 4 2 8 13 15 16 18 19 17 17 16 16 17 18 16 15 17 22 26 23 21
32 30 19 16 14 21 16 12 15 14 15 10 15 16 8 13 11 9 9 10 11 9 4 8 5 6 8 11 12 13 14 14 12 13 15 18 19 20 22 21 20 19 19 19
33 29 24 27 24 18 15 12 17 13 10 10 16 9 19 14 17 14 12 17 15 12 3 3 8 9 10 9 11 11 12 13 13 12 13 13 12 12 11 10 12 16 18 17
37 25 31 28 25 17 20 16 13 12 13 16 17 6 16 15 26 21 17 18 19 16 8 3 5 8 10 12 13 13 13 12 13 12 12 13 13 11 12 12 13 14 15 16
30 28 28 30 23 19 17 18 16 15 13 11 23 10 14 14 22 21 22 22 20 18 12 7 6 10 11 12 13 15 14 14 15 14 14 13 10 12 16 14 14 14 17 17
37 36 29 28 27 24 19 18 3 5 3 7 10 11 22 21 11 13 26 17 17 20 18 12 11 12 15 16 15 15 14 12 12 13 10 11 12 15 15 19 15 17 18 20
32 25 36 30 32 25 23 23 11 6 2 4 13 6 10 9 9 12 7 6 21 14 17 16 17 16 13 17 18 19 17 14 16 15 14 14 15 17 19 19 21 19 19 16
27 27 19 33 26 27 22 23 25 4 3 4 12 13 5 11 9 6 6 7 9 14 14 18 20 22 21 19 16 19 20 18 20 21 20 19 23 20 21 22 22 20 21 19
30 18 31 28 30 27 32 17 22 23 7 5 8 12 8 19 6 6 8 11 12 14 11 14 19 24 26 26 21 16 13 20 23 25 25 25 25 27 25 26 28 25 23 22
44 25 23 26 36 34 29 29 23 14 14 6 2 5 3 7 9 7 10 13 13 18 16 18 21 19 25 28 25 22 21 20 23 24 30 31 31 32 32 34 35 27 27 25
40 27 29 33 19 40 36 33 29 20 12 12 17 8 12 5 8 6 12 14 11 12 11 11 9 22 18 26 30 28 27 28 28 23 25 30 33 38 37 35 38 26 24 29
31 32 24 25 29 31 41 31 27 26 28 27 6 11 22 12 10 16 13 16 13 10 16 17 17 11 17 20 19 23 26 26 26 26 23 30 28 29 27 28 23 25 27 29
37 29 33 26 22 16 32 35 32 27 30 28 29 18 14 13 12 15 19 15 15 16 20 19 17 16 13 16 19 22 24 25 26 24 26 27 27 29 25 27 28 28 25 24
21 35 38 32 32 26 28 28 27 30 32 24 28 26 24 21 17 12 13 15 24 18 14 16 18 19 22 19 17 17 20 21 21 24 25 23 24 24 25 28 27 27 27 29
30 25 33 31 28 35 30 26 33 33 33 29 23 24 21 17 19 19 25 16 11 11 12 19 24 21 23 23 24 22 22 23 23 23 24 26 27 28 28 29 30 31 31 34
38 26 18 32 27 24 32 34 28 30 28 27 31 30 19 21 24 17 13 17 17 13 14 20 24 24 28 33 30 28 26 24 26 27 27 29 30 31 32 31 32 33 36 36
33 38 21 19 26 15 16 28 23 25 29 20 24 16 14 14 17 18 20 17 17 18 18 23 25 29 32 34 34 32 31 30 31 34 31 32 32 32 30 33 35 32 30 30
26 29 15 16 29 18 29 25 19 20 29 26 24 18 19 16 18 23 23 20 17 18 22 25 25 26 28 28 31 32 34 33 34 29 27 27 29 29 28 29 30 31 30 30
23 22 18 9 8 9 23 25 20 18 27 20 18 24 19 19 21 18 23 24 22 24 21 21 23 23 23 25 26 28 27 24 21 18 19 21 23 26 27 28 28 28 29 30
25 35 20 14 7 14 9 28 17 21 15 20 21 24 24 23 26 24 20 22 18 20 19 19 20 21 23 24 24 23 20 19 19 20 21 22 24 25 27 27 27 29 29 28
18 20 24 21 8 9 12 14 29 28 28 24 24 18 16 17 16 15 15 19 22 21 21 20 20 23 24 24 23 23 22 23 23 23 24 25 26 26 27 29 30 29 29 28
19 19 17 21 18 11 14 21 16 13 16 18 23 22 21 20 19 20 20 22 21 21 22 24 24 24 25 27 27 26 26 26 25 25 26 27 28 29 29 29 30 31 30 29
27 23 25 23 29 23 24 24 29 28 24 18 17 20 23 23 19 19 21 21 20 22 23 25 26 25 26 28 30 31 31 31 30 29 29 30 31 31 33 32 32 30 29 30
26 17 21 26 23 14 19 25 29 31 28 23 29 17 19 14 15 18 21 24 24 24 27 27 28 28 29 30 33 34 35 36 35 33 33 34 34 35 35 32 31 33 32 29
21 29 18 18 7 14 15 11 14 13 28 28 20 20 22 24 22 19 25 25 27 27 29 30 32 32 33 34 35 38 40 40 39 38 37 37 35 35 36 37 36 32 29 30
Wind_Direction
223 229 229 232 222 246 282 283 283 286 276 261 266 284 314 310 231 253 254 278 301 312 357 84 79 84 96 108 115 121 127 127 121 125 130 133 145 149 157 169 180 192 206 212
225 239 238 244 239 253 269 275 296 269 313 278 282 287 291 281 230 240 235 223 272 336 10 101 140 121 120 121 123 127 131 124 126 130 138 152 159 156 163 182 192 202 210 216
222 237 236 225 248 263 263 264 271 289 294 284 279 293 274 240 230 246 268 266 291 314 360 98 111 132 151 145 144 145 146 145 147 155 161 166 174 181 190 196 200 205 218 228
225 241 237 244 242 254 251 246 268 283 308 306 301 292 293 241 245 238 259 259 271 291 275 165 149 140 137 154 171 171 175 165 164 172 181 178 185 188 194 205 212 223 229 238
223 225 241 242 246 234 248 262 295 282 293 299 288 259 284 216 218 226 235 245 255 271 262 244 165 163 165 170 166 174 176 170 179 183 192 195 197 201 207 219 221 231 239 244
234 232 234 241 246 238 244 260 269 285 276 278 265 254 277 219 219 223 239 242 240 256 256 258 198 191 195 200 187 187 192 193 197 199 207 207 201 222 229 235 242 242 246 253
223 231 241 236 243 243 224 242 279 298 246 227 291 223 241 257 212 230 225 231 245 244 252 255 259 230 205 209 215 213 217 221 216 226 229 229 227 241 244 253 261 260 260 261
224 233 224 223 232 230 227 226 206 201 207 349 310 281 306 182 171 186 180 207 236 249 252 264 278 284 264 238 231 232 233 239 243 250 253 243 245 245 253 254 256 263 257 253
214 231 226 229 234 217 223 224 220 202 175 357 259 264 112 134 154 179 209 206 226 227 247 264 269 273 276 276 263 251 247 243 244 252 254 247 249 250 246 255 261 263 259 258
228 238 232 234 227 226 221 221 216 234 162 213 254 236 213 205 222 203 198 215 201 203 231 240 255 262 262 264 273 264 265 262 256 255 255 253 249 252 254 247 255 259 253 257
224 236 237 231 224 215 219 226 234 257 244 179 212 268 337 121 165 219 223 206 230 246 240 238 236 257 260 259 264 267 262 257 254 254 257 256 255 250 247 246 252 255 252 273
221 225 246 240 245 229 223 224 222 225 244 248 230 222 164 168 202 227 212 237 239 239 251 271 239 242 246 246 249 257 258 255 267 249 249 257 265 260 258 254 249 277 271 273
195 215 252 262 258 228 211 215 222 234 242 255 200 230 205 257 229 220 230 235 237 249 252 265 292 240 244 242 241 246 251 265 267 263 254 268 264 265 270 264 278 278 279 277
210 219 220 244 255 229 202 213 220 228 236 243 250 246 251 252 257 254 268 261 247 240 228 267 262 266 265 255 249 244 256 261 270 269 263 267 263 267 269 270 276 278 274 274
205 221 218 247 242 225 234 223 224 231 242 233 249 256 254 254 256 281 239 248 232 267 246 226 254 255 258 261 270 275 273 273 268 261 266 268 269 271 265 265 270 267 268 275
217 235 229 250 248 228 240 240 238 230 241 236 248 250 253 251 259 279 267 254 237 226 240 229 235 248 260 264 277 282 276 267 272 269 266 266 266 269 270 274 269 270 272 275
216 220 232 246 249 243 252 233 238 234 241 246 241 248 254 260 256 254 271 233 241 250 251 251 257 261 262 268 273 274 272 270 273 276 270 266 263 263 265 269 269 273 278 277
221 213 235 229 245 241 248 234 244 242 242 251 234 227 236 264 257 256 255 265 249 258 260 268 272 274 268 271 271 267 274 276 273 277 267 260 260 261 265 271 274 277 279 280
209 207 204 201 225 239 234 235 243 244 248 258 255 247 240 258 268 256 261 251 251 259 273 282 277 271 268 269 264 263 270 272 274 268 261 259 262 266 269 274 278 279 278 277
194 201 205 230 230 236 248 223 233 250 249 244 252 259 246 259 264 262 245 249 265 281 281 281 281 275 271 270 266 263 264 263 259 255 253 256 263 270 275 277 278 279 278 279
212 217 223 248 268 237 265 234 215 250 252 245 252 239 255 255 258 265 256 263 271 283 283 288 289 286 280 275 273 266 262 258 255 258 264 272 277 281 282 281 280 279 282 284
203 196 215 233 243 240 180 199 217 245 252 253 250 249 265 255 251 245 259 269 284 282 278 286 296 297 293 280 270 261 256 258 262 267 273 276 280 282 279 278 280 283 285 283
225 220 206 210 231 209 231 228 208 237 241 238 244 243 250 256 258 258 266 275 280 277 284 294 296 294 290 281 272 261 259 261 264 266 271 277 279 277 276 276 277 278 280 279
233 237 239 250 234 226 230 227 229 232 244 223 241 239 246 248 252 259 262 274 275 283 288 288 286 285 282 271 265 262 262 264 264 265 268 270 270 270 271 272 277 280 276 271
223 238 242 263 247 255 244 227 217 214 217 216 243 228 229 253 265 266 269 273 276 282 286 285 279 272 269 267 263 261 260 261 262 263 263 263 263 265 266 267 266 261 259 263
220 223 235 243 250 240 266 253 260 254 233 218 247 263 248 279 282 278 275 273 275 276 278 280 274 269 265 267 265 263 262 262 262 261 259 258 259 259 259 256 252 253 263 268
Height
3100 3101 3097 3100 3102 3102 3102 3103 3102 3102 3101 3101 3099 3098 3096 3097 3097 3095 3094 3094 3096 3095 3098 3094 3095 3093 3091 3091 3091 3093 3096 3100 3102 3105 3107 3110 3114 3119 3123 3130 3136 3140 3146 3149
3099 3088 3094 3098 3099 3100 3102 3100 3099 3099 3099 3099 3098 3096 3094 3093 3093 3095 3095 3095 3094 3094 3095 3095 3094 3094 3095 3096 3098 3099 3101 3103 3106 3108 3111 3114 3119 3121 3124 3130 3135 3140 3143 3146
3087 3085 3093 3095 3095 3096 3098 3098 3098 3097 3096 3096 3095 3095 3093 3092 3092 3093 3093 3092 3091 3092 3093 3095 3094 3094 3095 3097 3100 3102 3103 3105 3108 3109 3113 3115 3118 3121 3126 3129 3134 3137 3140 3142
3082 3085 3089 3091 3091 3094 3095 3095 3096 3095 3094 3093 3093 3091 3091 3092 3092 3091 3091 3091 3090 3091 3092 3094 3096 3096 3097 3098 3100 3102 3104 3105 3106 3109 3112 3113 3117 3120 3123 3127 3130 3133 3135 3137
3071 3079 3081 3084 3088 3090 3091 3093 3093 3092 3092 3092 3091 3090 3084 3086 3085 3087 3087 3088 3089 3089 3090 3091 3093 3096 3097 3099 3100 3101 3102 3103 3105 3107 3110 3112 3115 3118 3122 3125 3128 3130 3132 3134
3070 3075 3078 3080 3084 3086 3089 3090 3089 3090 3091 3090 3086 3089 3082 3080 3080 3082 3084 3084 3087 3087 3089 3089 3091 3093 3094 3097 3098 3100 3103 3104 3103 3104 3107 3111 3114 3117 3120 3123 3125 3127 3127 3130
3065 3066 3072 3077 3080 3082 3084 3087 3088 3090 3089 3087 3082 3083 3077 3075 3076 3078 3078 3081 3082 3085 3086 3087 3088 3090 3092 3093 3095 3097 3097 3099 3101 3103 3105 3106 3109 3113 3115 3118 3121 3122 3124 3125
3059 3059 3062 3067 3072 3076 3078 3082 3085 3090 3088 3084 3080 3077 3075 3073 3075 3078 3078 3079 3082 3082 3083 3084 3085 3087 3089 3091 3093 3093 3094 3097 3099 3101 3104 3106 3109 3109 3109 3110 3113 3116 3117 3119
3053 3052 3059 3063 3068 3072 3074 3075 3080 3082 3082 3086 3082 3076 3076 3076 3076 3077 3077 3078 3077 3080 3080 3079 3081 3083 3084 3086 3088 3091 3094 3095 3097 3099 3101 3103 3104 3106 3107 3105 3104 3107 3110 3114
3049 3052 3054 3059 3064 3065 3067 3074 3077 3078 3083 3085 3074 3074 3073 3074 3074 3074 3076 3077 3078 3080 3078 3078 3078 3078 3079 3081 3085 3087 3090 3092 3093 3094 3096 3098 3100 3100 3102 3102 3098 3099 3102 3103
3047 3048 3048 3052 3051 3056 3063 3065 3069 3072 3072 3073 3076 3071 3069 3070 3072 3073 3074 3074 3075 3077 3078 3077 3076 3074 3076 3078 3081 3083 3085 3087 3086 3087 3090 3091 3092 3093 3094 3093 3089 3092 3094 3096
3037 3041 3045 3043 3047 3050 3054 3057 3063 3065 3067 3066 3066 3068 3069 3071 3072 3072 3072 3072 3071 3072 3072 3074 3074 3072 3071 3074 3079 3080 3079 3080 3082 3082 3084 3086 3085 3084 3084 3083 3072 3085 3086 3089
3029 3037 3044 3041 3040 3040 3043 3051 3055 3059 3063 3061 3064 3063 3067 3067 3068 3068 3069 3070 3070 3069 3068 3069 3071 3073 3070 3070 3074 3073 3074 3076 3076 3078 3076 3080 3078 3077 3081 3079 3074 3081 3083 3084
3027 3032 3035 3035 3036 3039 3039 3043 3048 3053 3054 3056 3056 3060 3062 3063 3064 3065 3064 3065 3066 3066 3066 3066 3066 3068 3070 3067 3068 3070 3069 3069 3071 3072 3073 3074 3074 3075 3076 3076 3075 3077 3078 3078
3020 3022 3030 3031 3032 3035 3036 3038 3042 3044 3048 3049 3052 3054 3057 3059 3060 3060 3060 3059 3061 3062 3062 3062 3062 3062 3062 3066 3067 3068 3067 3066 3067 3068 3068 3067 3068 3069 3071 3070 3070 3070 3070 3069
3013 3016 3023 3025 3026 3028 3033 3033 3035 3038 3041 3043 3047 3048 3052 3054 3055 3054 3056 3053 3054 3054 3057 3058 3056 3056 3057 3060 3062 3063 3063 3063 3062 3063 3062 3062 3062 3062 3064 3064 3064 3064 3063 3061
3010 3014 3018 3018 3021 3022 3020 3026 3029 3033 3035 3037 3039 3043 3046 3048 3049 3050 3050 3051 3049 3050 3053 3054 3054 3055 3054 3054 3055 3056 3056 3057 3056 3056 3055 3055 3055 3055 3056 3056 3055 3055 3053 3052
3004 3007 3014 3016 3022 3016 3014 3019 3024 3027 3030 3032 3035 3036 3039 3042 3044 3044 3045 3045 3046 3047 3048 3047 3049 3049 3048 3048 3048 3048 3048 3048 3047 3046 3046 3047 3047 3048 3048 3048 3047 3045 3044 3043
2997 3003 3006 3009 3013 3011 3011 3015 3020 3021 3025 3027 3028 3031 3034 3037 3038 3037 3039 3039 3040 3042 3042 3040 3041 3041 3041 3040 3040 3040 3040 3040 3039 3039 3039 3039 3040 3041 3040 3040 3038 3036 3035 3034
2994 2998 3002 3004 3003 2999 3003 3012 3016 3018 3016 3021 3023 3027 3029 3031 3031 3033 3034 3034 3035 3035 3035 3034 3033 3034 3034 3033 3033 3032 3032 3032 3032 3032 3033 3033 3034 3033 3032 3031 3030 3028 3026 3026
2990 2992 2994 3001 3000 2997 3001 3006 3013 3012 3016 3017 3018 3021 3023 3024 3025 3027 3028 3029 3029 3029 3029 3029 3027 3026 3026 3025 3025 3025 3026 3026 3027 3027 3027 3027 3026 3025 3024 3023 3022 3019 3019 3017
2985 2990 2993 2999 2998 2997 3000 3003 3005 3008 3010 3013 3015 3017 3018 3019 3020 3022 3022 3023 3023 3023 3023 3022 3021 3019 3017 3017 3019 3019 3019 3020 3020 3020 3020 3019 3019 3018 3016 3015 3013 3012 3010 3009
2984 2986 2988 2991 2989 2992 2997 2998 2997 3001 3005 3007 3009 3010 3012 3014 3015 3017 3017 3018 3018 3017 3016 3015 3014 3013 3011 3009 3009 3011 3012 3012 3013 3013 3012 3012 3011 3010 3009 3007 3005 3004 3002 3000
2978 2981 2984 2986 2985 2987 2991 2992 2994 2997 3001 3002 3004 3006 3006 3008 3010 3011 3012 3012 3012 3011 3009 3008 3007 3006 3004 3002 3002 3004 3005 3005 3004 3004 3004 3003 3002 3001 2999 2998 2996 2996 2995 2992
2975 2977 2978 2976 2979 2980 2982 2983 2986 2988 2990 2994 2999 2999 2999 3001 3003 3005 3005 3005 3004 3003 3001 3000 2999 2998 2997 2996 2995 2996 2996 2996 2997 2997 2996 2995 2993 2991 2990 2989 2988 2984 2981 2980
2968 2971 2973 2973 2976 2978 2982 2981 2981 2983 2986 2988 2990 2992 2993 2993 2995 2997 2997 2997 2996 2995 2993 2992 2990 2989 2988 2987 2987 2987 2986 2987 2987 2987 2986 2985 2984 2982 2980 2978 2974 2971 2971 2970